Date String (YYYY-MM-DD hh:mm:ss) UTC,Instrument flags,Ambient pressure (hPa),Sample flow (lpm),Bypass flow (lpm),Sample temperature (°C),Ambient temperature (°C),ASC tube jacket temperature (°C),LED temperature (°C),Box temperature (°C),Sample RH (%),Span deviation,Mass concentration (μg/m³),Mass concentration (μg/m³),Mass concentration (μg/m³)
DateTimeUTC,F1_M11,P_M11,Q1_M11,Q2_M11,T1_M11,T2_M11,T3_M11,T4_M11,T5_M11,U1_M11,ZSPAN_M11,X0_M11,X2_M11,X1_M11
2022-10-05 03:00:00,,0831.4,4.99,0.00,28.4,27.1,00.0,37.0,30.3,27.0,-002.6,0010.89,0007.53,0007.17
2022-10-05 03:01:00,,0831.4,5.01,0.00,28.4,27.1,00.0,37.0,30.3,26.9,-002.6,0010.46,0007.49,0007.15
2022-10-05 03:02:00,,0831.3,4.99,0.00,28.4,27.1,00.0,37.1,30.3,27.0,-002.5,0010.56,0007.47,0007.13
2022-10-05 03:03:00,,0831.4,5.00,0.00,28.4,27.2,00.0,37.1,30.3,26.7,-002.6,0010.41,0007.41,0007.11
2022-10-05 03:04:00,,0831.4,4.99,0.00,28.4,27.2,00.0,37.1,30.3,26.7,-000.4,0010.45,0007.41,0007.08
2022-10-05 03:05:00,,0831.4,5.02,0.00,28.4,27.2,00.0,37.1,30.3,26.6,0000.0,0010.41,0007.41,0007.08
2022-10-05 03:06:00,,0831.4,4.99,0.00,28.5,27.2,00.0,37.1,30.3,26.8,-000.7,0010.38,0007.41,0007.06
2022-10-05 03:07:00,,0831.4,5.01,0.00,28.5,27.2,00.0,37.1,30.3,26.6,-002.0,0010.36,0007.41,0007.07
2022-10-05 03:08:00,,0831.4,5.00,0.00,28.5,27.2,00.0,37.1,30.3,26.5,-002.1,0010.59,0007.39,0007.06
2022-10-05 03:09:00,,0831.4,5.01,0.00,28.5,27.2,00.0,37.1,30.3,26.6,-001.8,0010.69,0007.40,0007.06
2022-10-05 03:10:00,,0831.4,4.99,0.00,28.5,27.2,00.0,37.1,30.4,26.5,-000.0,0011.01,0007.40,0007.04
2022-10-05 03:11:00,,0831.4,5.01,0.00,28.5,27.2,00.0,37.1,30.4,26.5,0000.0,0011.31,0007.38,0007.02
2022-10-05 03:12:00,,0831.5,5.00,0.00,28.5,27.2,00.0,37.1,30.4,26.4,0000.0,0011.40,0007.39,0007.03
2022-10-05 03:13:00,,0831.5,5.00,0.00,28.5,27.2,00.0,37.1,30.4,26.4,0000.0,0011.68,0007.40,0007.03
2022-10-05 03:14:00,,0831.5,5.00,0.00,28.5,27.2,00.0,37.1,30.4,26.4,-001.6,0012.20,0007.43,0007.05
2022-10-05 03:15:00,,0831.5,5.00,0.00,28.5,27.2,00.0,37.1,30.4,26.6,0000.0,0012.23,0007.44,0007.06
2022-10-05 03:16:00,,0831.4,5.00,0.00,28.5,27.2,00.0,37.2,30.4,26.4,0000.0,0012.20,0007.43,0007.07
2022-10-05 03:17:00,,0831.5,5.01,0.00,28.5,27.2,00.0,37.2,30.4,26.4,-000.5,0012.39,0007.44,0007.08
2022-10-05 03:18:00,,0831.5,4.99,0.00,28.5,27.2,00.0,37.2,30.4,26.4,0000.0,0012.47,0007.46,0007.09
2022-10-05 03:19:00,,0831.5,5.01,0.00,28.5,27.2,00.0,37.2,30.4,26.3,-001.0,0012.29,0007.48,0007.10
2022-10-05 03:20:00,,0831.6,4.99,0.00,28.6,27.2,00.0,37.2,30.4,26.3,-000.9,0012.16,0007.47,0007.12
2022-10-05 03:21:00,,0831.5,5.01,0.00,28.6,27.3,00.0,37.2,30.4,26.3,0000.0,0011.88,0007.44,0007.12
2022-10-05 03:22:00,,0831.5,4.99,0.00,28.6,27.3,00.0,37.2,30.4,26.2,-000.0,0011.46,0007.46,0007.14
2022-10-05 03:23:00,,0831.5,5.01,0.00,28.6,27.3,00.0,37.2,30.5,26.2,-001.6,0012.00,0007.50,0007.14
2022-10-05 03:24:00,,0831.5,4.99,0.00,28.6,27.3,00.0,37.2,30.5,26.2,-001.4,0011.84,0007.52,0007.14
2022-10-05 03:25:00,,0831.5,5.01,0.00,28.6,27.3,00.0,37.2,30.5,26.2,-001.6,0011.57,0007.53,0007.14
2022-10-05 03:26:00,,0831.5,4.98,0.00,28.6,27.3,00.0,37.2,30.5,26.1,-001.7,0011.72,0007.52,0007.15
2022-10-05 03:27:00,,0831.5,5.01,0.00,28.6,27.3,00.0,37.2,30.5,26.0,-001.3,0011.78,0007.54,0007.16
2022-10-05 03:28:00,,0831.6,4.99,0.00,28.6,27.3,00.0,37.3,30.5,26.1,-001.5,0011.57,0007.53,0007.16
2022-10-05 03:29:00,,0831.5,5.00,0.00,28.6,27.3,00.0,37.3,30.5,26.0,-002.0,0011.54,0007.55,0007.17
2022-10-05 03:30:00,,0831.6,5.00,0.00,28.6,27.3,00.0,37.3,30.5,26.0,-001.9,0011.50,0007.53,0007.15
2022-10-05 03:31:00,,0831.5,5.00,0.00,28.6,27.3,00.0,37.3,30.5,25.7,-001.9,0011.52,0007.54,0007.15
2022-10-05 03:32:00,,0831.6,5.00,0.00,28.6,27.3,00.0,37.3,30.5,25.7,-001.7,0011.81,0007.60,0007.19
2022-10-05 03:33:00,,0831.5,5.01,0.00,28.6,27.3,00.0,37.3,30.5,25.6,-002.2,0012.26,0007.67,0007.24
2022-10-05 03:34:00,,0831.6,4.99,0.00,28.6,27.3,00.0,37.3,30.5,25.5,-001.4,0012.34,0007.71,0007.30
2022-10-05 03:35:00,,0831.6,5.01,0.00,28.7,27.4,00.0,37.3,30.5,25.3,-002.2,0012.17,0007.77,0007.39
2022-10-05 03:36:00,,0831.6,4.99,0.00,28.7,27.4,00.0,37.3,30.5,25.4,-002.2,0012.15,0007.83,0007.47
2022-10-05 03:37:00,,0831.6,5.01,0.00,28.7,27.3,00.0,37.3,30.5,25.6,-002.4,0012.26,0007.87,0007.51
2022-10-05 03:38:00,,0831.6,4.99,0.00,28.7,27.3,00.0,37.3,30.5,25.9,-002.6,0012.52,0007.89,0007.53
2022-10-05 03:39:00,,0831.7,4.99,0.00,28.7,27.4,00.0,37.3,30.6,25.9,-002.2,0012.97,0007.92,0007.53
2022-10-05 03:40:00,,0831.7,5.01,0.00,28.7,27.4,00.0,37.3,30.6,26.0,-001.5,0013.00,0007.92,0007.52
2022-10-05 03:41:00,,0831.7,4.99,0.00,28.7,27.4,00.0,37.3,30.6,26.0,0000.0,0013.06,0007.92,0007.51
2022-10-05 03:42:00,,0831.7,5.01,0.00,28.7,27.4,00.0,37.3,30.6,26.1,0000.0,0013.83,0007.91,0007.49
2022-10-05 03:43:00,,0831.7,5.00,0.00,28.7,27.4,00.0,37.3,30.6,26.2,0000.0,0013.57,0007.83,0007.43
2022-10-05 03:44:00,,0831.8,4.99,0.00,28.7,27.4,00.0,37.3,30.6,26.3,0000.0,0013.15,0007.73,0007.35
2022-10-05 03:45:00,,0831.8,5.01,0.00,28.7,27.4,00.0,37.4,30.6,26.4,0000.0,0012.40,0007.62,0007.24
2022-10-05 03:46:00,,0831.7,5.00,0.00,28.7,27.4,00.0,37.4,30.6,26.4,0000.0,0012.27,0007.50,0007.11
2022-10-05 03:47:00,,0831.7,5.01,0.00,28.7,27.4,00.0,37.4,30.6,26.4,0000.0,0012.10,0007.38,0006.99
2022-10-05 03:48:00,,0831.7,4.99,0.00,28.7,27.4,00.0,37.4,30.6,26.2,0000.0,0011.86,0007.31,0006.91
2022-10-05 03:49:00,,0831.7,5.01,0.00,28.7,27.4,00.0,37.4,30.6,26.2,0000.0,0011.56,0007.25,0006.87
2022-10-05 03:50:00,,0831.7,4.99,0.00,28.7,27.4,00.0,37.4,30.6,26.1,0000.0,0011.03,0007.20,0006.85
2022-10-05 03:51:00,,0831.7,5.01,0.00,28.7,27.4,00.0,37.4,30.6,25.9,0000.0,0011.00,0007.17,0006.85
2022-10-05 03:52:00,,0831.8,4.99,0.00,28.7,27.4,00.0,37.4,30.6,26.0,0000.0,0011.16,0007.19,0006.85
2022-10-05 03:53:00,,0831.7,5.00,0.00,28.7,27.4,00.0,37.4,30.6,26.0,0000.0,0010.36,0007.18,0006.86
2022-10-05 03:54:00,,0831.7,5.00,0.00,28.7,27.4,00.0,37.4,30.6,26.0,0000.0,0010.38,0007.21,0006.88
2022-10-05 03:55:00,,0831.8,4.99,0.00,28.8,27.4,00.0,37.4,30.6,25.8,0000.0,0010.44,0007.23,0006.90
2022-10-05 03:56:00,,0831.7,5.01,0.00,28.8,27.4,00.0,37.4,30.6,25.7,0000.0,0010.47,0007.26,0006.91
2022-10-05 03:57:00,,0831.7,5.00,0.00,28.8,27.4,00.0,37.4,30.7,25.6,0000.0,0010.53,0007.27,0006.92
2022-10-05 03:58:00,,0831.7,5.00,0.00,28.8,27.4,00.0,37.4,30.7,25.6,0000.0,0010.73,0007.27,0006.92
2022-10-05 03:59:00,,0831.7,5.01,0.00,28.8,27.4,00.0,37.4,30.7,25.6,0000.0,0010.90,0007.25,0006.91
